This is the latest recevied weather packets stored in our database for station/object W1HVD. If no packets are shown the sender has not sent any weather packets the latest 1 day(s).
| Time | Temp. | Humidity | Pressure | Rain* | Wind** | Luminosity | Snow |
|---|---|---|---|---|---|---|---|
| 1777983127 | 15° C | 77% | 1011.3 hPa | 0 mm | 1.34 m/s, 218° | 72 W/m² | - |
| 1777982823 | 14.44° C | 78% | 1011.5 hPa | 0 mm | 0.45 m/s, 168° | 65 W/m² | - |
| 1777982519 | 14.44° C | 80% | 1011.4 hPa | 0 mm | 0.89 m/s, 199° | 63 W/m² | - |
| 1777982213 | 13.89° C | 80% | 1011.2 hPa | 0 mm | 0.89 m/s, 239° | 67 W/m² | - |
| 1777981911 | 13.89° C | 81% | 1011.2 hPa | 0 mm | 0.45 m/s, 168° | 59 W/m² | - |
| 1777981608 | 13.33° C | 82% | 1011.4 hPa | 0 mm | 0.89 m/s, 195° | 62 W/m² | - |
| 1777981304 | 13.33° C | 83% | 1011.3 hPa | 0 mm | 0.89 m/s, 202° | 89 W/m² | - |
| 1777981001 | 12.78° C | 84% | 1011.3 hPa | 0 mm | 0.45 m/s, 220° | 114 W/m² | - |
| 1777980697 | 12.78° C | 85% | 1011.3 hPa | 0 mm | 0.45 m/s, 208° | 65 W/m² | - |
| 1777980393 | 12.22° C | 85% | 1011.5 hPa | 0 mm | 0.45 m/s, 200° | 67 W/m² | - |
| 1777980092 | 12.22° C | 86% | 1011.4 hPa | 0 mm | 0 m/s | 76 W/m² | - |
| 1777979785 | 11.67° C | 87% | 1011.3 hPa | 0 mm | 0.45 m/s, 200° | 49 W/m² | - |
| 1777979481 | 11.67° C | 88% | 1011.4 hPa | 0 mm | 0.89 m/s, 236° | 53 W/m² | - |
| 1777979178 | 11.67° C | 89% | 1011.3 hPa | 0 mm | 0.89 m/s, 102° | 47 W/m² | - |
| 1777978875 | 11.11° C | 89% | 1011.3 hPa | 0 mm | 0.89 m/s, 221° | 40 W/m² | - |
| 1777978572 | 11.11° C | 91% | 1011.2 hPa | 0 mm | 0.45 m/s, 215° | 38 W/m² | - |
| 1777978267 | 10.56° C | 91% | 1011.2 hPa | 0 mm | 0 m/s | 37 W/m² | - |
| 1777977964 | 10.56° C | 93% | 1011.1 hPa | 0 mm | 0 m/s | 37 W/m² | - |
| 1777977662 | 10° C | 93% | 1011.1 hPa | 0 mm | 0 m/s | 30 W/m² | - |
| 1777977358 | 10° C | 94% | 1011.2 hPa | 0 mm | 0.45 m/s, 198° | 28 W/m² | - |
| 1777977056 | 10° C | 95% | 1011.2 hPa | 0 mm | 0.45 m/s, 211° | 27 W/m² | - |
| 1777976753 | 10° C | 96% | 1011.2 hPa | 0 mm | 0 m/s | 26 W/m² | - |
| 1777976450 | 9.44° C | 96% | 1011.1 hPa | 0 mm | 0.45 m/s, 209° | 24 W/m² | - |
| 1777976149 | 9.44° C | 97% | 1011.1 hPa | 0 mm | 0 m/s | 22 W/m² | - |
| 1777975845 | 9.44° C | 97% | 1010.9 hPa | 0 mm | 0 m/s | 18 W/m² | - |
* Rain latest hour (hover to see other rain measurements)
** Current wind speed in m/s (hover to see current wind gust speed)